STARLINK-1830, 46727

Orbit data source: Space-Track

STARLINK-1830, 46727 is a payload satellite owned by SpaceX/Seattle (US) in LEO that was launched on Sun, 18 Oct 2020 UTC via an FALCON 9 launch vehicle from the Air Force Eastern Test Range (AFETR). Payload-class satellites include a variety of spacecraft equipped with specific instruments for various scientific and technological missions. These include communications satellites like Starlink; space stations such as the ISS; scientific satellites like the Hubble; Earth observation satellites from companies like Planet Labs, Umbra, and HawkEye 360; GPS; miniature CubeSats for education and research; and military/defense satellites.

Loading next visibility...
Identifier
46727, 2020-073BK
Orbit
LEO
Last TLE update
3 hours ago
Origin
Manufacturer
SpaceX/Seattle
Mission
Operational Commercial Communications
Bus & Motor
STARLINK, Unknown motor
Mass
260 kg wet, ~248 kg dry
Launch date (UTC)
2020-10-18 (5 years ago)
Launch vehicle
FALCON 9
Launch site
Air Force Eastern Test Range (AFETR)
Object type
Payload
Rocket body
Debris
Shape & HBR
Box + 1 Pan, 8.86 m
Radar Cross Section
13.562 m², Large (>1 m²)

Expand to show TLE details & history

TLE from 3 hours ago
0 STARLINK-1830
1 46727U 20073BK  25133.20597942  .00000564  00000-0  56751-4 0  9993
2 46727  53.0540 125.5422 0001306  90.3838 269.7300 15.06404560252677
Epoch: 2025-05-13T04:56Z
Definitive object data (Epoch: 2025-05-13T04:56:36.621Z)
Latitude
-0.00009°
Longitude
-179.8185°
Altitude
548.081 km
Speed
7.589 km/s
True Right ascension
08h 22m 10s
True Declination
0° 00' 00"
Sunlit
Object was in daylight at TLE epoch
Visualization TLE readout
Latitude
-47.20681°
Longitude
125.74721°
Altitude
564.156 km
Speed
7.579 km/s
Apparent Right ascension
04h 29m 24s
Apparent Declination
-43° 35' 33"
Sunlit
Object is in daylight
Visualization observer readout
Local Sidereal Time
16:14:54
Azimuth
215.134° SW
Elevation
-85.438°
Doppler factor
1
Orbital elements
Apogee altitude
548.373 km
Perigee altitude
546.564 km
Semi-major axis
6,925.605 km
Eccentricity
0.0001306
Inclination
53.054°
RAAN
125.5422°
Arg. of periapsis
90.3838°
True anomaly
269.71503°
Mean anomaly
269.73°
Eccentric anomaly
269.72252°
Mean motion
3.76579 °/min
BSTAR
0.000056751
Orbital period
95.6 mins
Loading maneuver chart data...
Loading SW <> Apogee altitude chart data...

STARLINK-1830 Visibility forecast

Observer location: undefined°, undefined°

Span
Click to sort rows by Start time (UTC) header in descending order
Start Az.
Max El. time (UTC)
Max El. Az.
Max El.
End time (UTC)
End Az.
7 mins2025-05-13 08:36:04.267Z321.089° NNW2025-05-13 08:40:04.267Z52.021° ENE34.532°2025-05-13 08:43:04.267Z104.949° ESE
5 mins2025-05-13 10:17:04.267Z271.15° WNW2025-05-13 10:19:04.267Z228.547° WSW23.709°2025-05-13 10:22:04.267Z176.034° S
6 mins2025-05-14 01:49:04.267Z210.64° SW2025-05-14 01:52:04.267Z123.539° SE40.139°2025-05-14 01:55:04.267Z59.859° ENE
5 mins2025-05-14 03:30:04.267Z297.895° NW2025-05-14 03:32:04.267Z344.692° N23.681°2025-05-14 03:35:04.267Z32.038° NE
|